IRNSS-1F

Last updated on Thu Nov 21 2024 00:02:43 GMT+0000 (Coordinated Universal Time)

1 41384U 16015A 24325.08724319 .00000161 00000+0 00000+0 0 9999 2 41384 3.9309 112.3794 0025322 179.3947 191.6966 1.00269038 31918
UTC large
Height (km)
Speed (km/s)
/
Latitude / Longitude
Inclination (degrees)
Orbital Period (minutes)
Azimuth
Elevation
Range (km)
Doppler Factor

Next 0 passes for location: London (51.5072 / 0.1276)

Sorry there are no passes over London.